sat.trackr.live / text

‹ back to catalog

STARLINK-31888

NORAD 59788 · 2024-093G

PAYLOAD ACTIVE UNKNOWN

§ Identity

Operator
Country
US
Launch date
2024-05-18
Launch site
AFETR
Launch vehicle
Mass (kg)
RCS (m²)

Purposes: comms

External: N2YO · Heavens-Above · Gunter

§ Orbital elements

Epoch: 2026-09-21T03:57:02.871648Z

Period
94.27 min
Inclination
43.0010°
Eccentricity
0.0000767
Mean motion
15.27574174 rev/d
Perigee alt
482.5 km
Apogee alt
483.6 km
Semi-major
6,861.2 km
B*
-3.4521e-6
RAAN
184.7135°
Arg perigee
282.2902°
Mean anomaly
77.7864°
Rev number
13,259

§ Raw data

STARLINK-318881 59788U 24093G   26264.16461657 -.00000357  00000+0 -34521-5 0  99972 59788  43.0010 184.7135 0000767 282.2902  77.7864 15.27574174132593

JSON: /api/v1/satellites/59788 · /tle

For live sub-satellite position, see the globe view (requires WebGL).

§ Visibility from observer

Set your observer location to see the next 7 days of passes ≥ 10°. The values pass through the URL so the page stays shareable.

No JS? Fill the form by hand. The geolocation button needs JavaScript.